Location: Puketoi
(40.5833°S, 176.0167°E)
Time: 08:44:09
(UTC+00:00)

Cosmos 1455 Rocket - Visible Passes

Search period start: 04 October 2023 00:00
Search period end: 14 October 2023 00:00
Orbit: 602 x 628 km, 82.5° (Epoch: 03 October)

Date Brightness Start Highest point End Pass type
(mag) Time Alt. Az. Time Alt. Az. Time Alt. Az.
04 Oct 5.8 09:03:50 10° SSE 09:03:56 10° SSE 09:03:56 10° SSE visible
05 Oct 5.6 09:19:20 10° S 09:20:09 15° SSE 09:20:09 15° SSE visible
06 Oct 5.5 09:35:09 10° S 09:36:22 18° S 09:36:22 18° S visible
07 Oct 5.5 09:51:13 10° SSW 09:52:37 20° SSW 09:52:37 20° SSW visible
08 Oct 5.2 08:30:29 10° SSE 08:31:48 15° SE 08:31:48 15° SE visible
08 Oct 5.7 10:07:33 10° SSW 10:08:53 18° SW 10:08:53 18° SW visible
09 Oct 4.8 08:45:55 10° S 08:48:05 23° SSE 08:48:05 23° SSE visible
09 Oct 6.0 10:24:15 10° SW 10:25:10 14° SW 10:25:10 14° SW visible
10 Oct 4.3 09:01:42 10° S 09:04:23 34° SSE 09:04:23 34° SSE visible
11 Oct 5.3 07:43:13 10° ESE 07:43:36 10° ESE 07:43:36 10° ESE visible
11 Oct 4.3 09:17:44 10° SSW 09:20:42 40° SSW 09:20:42 40° SSW visible
12 Oct 4.7 07:57:08 10° SSE 07:59:57 18° ESE 07:59:57 18° ESE visible
12 Oct 4.7 09:34:01 10° SSW 09:37:03 32° WSW 09:37:03 32° WSW visible
13 Oct 4.0 08:12:28 10° SSE 08:16:20 31° ESE 08:16:20 31° ESE visible
13 Oct 5.3 09:50:39 10° SW 09:53:26 21° WSW 09:53:26 21° WSW visible
